Вернуться в каталог

XINZHENGCHENG 01

АктивенВоенныеPO
NORAD 68414·PAYLOAD·🇨🇳 China

Запущен Mar 30, 2026 с Jiuquan Satellite Launch Center

Loading…

Ближайшие Пролёты (ближайшие 24 часа)

TLE

СвежийSource: Space-Track

Эпоха: Sep 14, 2026, 18:03 UTC

1 68414U 26066C   26257.75231206  .00000784  00000-0  80322-4 0  9999
2 68414  84.9708 170.7430 0024215 304.5264  55.3674 14.88772726 25055

Отслеживайте XINZHENGCHENG 01 в реальном времени с AllMySat

Download on the App Store